METEOR 2-11 DEB, 40318

Orbit data source: Space-Track

METEOR 2-11 DEB, 40318 is space debris in LEO originally from a launch on Thu, 05 Jul 1984 UTC launched from the Plesetsk Missile And Space Complex (PKMTR). Debris objects in space refer to the collection of defunct objects orbiting the Earth. Examples of debris include non-operational satellites, rocket bodies, and fragments generated from explosions, collisions, or faulty payload assembly.

Loading next visibility...
Identifier
40318, 1984-072D
Orbit
LEO
Country
Flag of CISCIS
Related business
Manufacturer
Unknown
Mission
Spacecraft
Bus & Motor
Unknown
Mass
Unknown
Launch date (UTC)
1984-07-05 (42 years ago)
Launch vehicle
Unknown
Launch site
Plesetsk Missile And Space Complex (PKMTR)
Object type
Payload
Rocket body
Debris
Shape & HBR
Unknown shape, 0.1 m
Radar Cross Section
Small (<0.1 m²)

Expand to show TLE details & history
Last TLE update: 5 hours ago

TLE from 5 hours ago
0 METEOR 2-11 DEB
1 40318U 84072D   26130.53677409  .00001120  00000-0  80688-3 0  9997
2 40318  82.5295  50.2524 0019815 112.7577   6.9959 13.95915324579967
Epoch: 2026-05-10T12:52Z
TLE epoch observation values (Epoch: 2026-05-10T12:52:57.281Z)
Latitude
59.47498°
Longitude
155.89438°
Altitude
903.73 km
Speed
7.413 km/s
True Right ascension
14h 29m 53s
True Declination
59° 19' 38"
Sunlit
Object was in daylight at epoch
Visualization orbit readout
Latitude
Unknown
Longitude
Unknown
Altitude
Unknown
Speed
Unknown
Apparent Right ascension
Unknown
Apparent Declination
Unknown
Sunlit
N/A
Visualization observer readout
Local Sidereal Time
01:38:53
Azimuth
Unknown
Elevation
Unknown
Doppler factor
Unknown
Orbital elements
Apogee altitude
919.542 km
Perigee altitude
890.679 km
Semi-major axis
7,283.247 km
Eccentricity
0.00198
Inclination
82.5295°
RAAN
50.2524°
Arg. of periapsis
112.7577°
True anomaly
7.02362°
Mean anomaly
6.9959°
Eccentric anomaly
7.00976°
Mean motion
3.49185 °/min
Orbital period
103.1 mins
BSTAR
0.00080688
Loading maneuver chart data...
Computing Atmospheric mass density...
Loading historical data...
Loading historical data...
Loading historical data...
Loading historical data...
Loading historical data...
Loading historical data...
Loading historical data...

Documentation

Showing up to 5 results
|